Weather reports worldwide

Advertisment
Livingston, mt, United States of America (2074626): temperature & dewpoint: 08.08.2020 01:00:00 - 14.08.2020 01:00:00 (MDT)Livingston, mt, United States of America (2074626): wind speed & gusts: 08.08.2020 01:00:00 - 14.08.2020 01:00:00 (MDT)Livingston, mt, United States of America (2074626): wind direction: 08.08.2020 01:00:00 - 14.08.2020 01:00:00 (MDT)Livingston, mt, United States of America (2074626): reduced air pressure: 08.08.2020 01:00:00 - 14.08.2020 01:00:00 (MDT)Livingston, mt, United States of America (2074626): visibility: 08.08.2020 01:00:00 - 14.08.2020 01:00:00 (MDT)Livingston, mt, United States of America (2074626): precipitation: 08.08.2020 01:00:00 - 14.08.2020 01:00:00 (MDT)
Date & Time tt [°C] td [°C] ff [km/h] ff [kn] fx [km/h] fx [kn] dd ppp [hPa] vv [km] rr [mm]
14.08.2020 01:00:00 11,7 8,9 11 6 - - W 1016,5 16 -
14.08.2020 00:00:00 13,3 9,4 8 4 - - W 1016,5 16 0,0
13.08.2020 23:00:00 14,4 9,4 15 8 - - W 1016,6 16 -
13.08.2020 22:00:00 15,6 8,9 11 6 - - NW 1016,6 16 0,0
13.08.2020 21:00:00 16,7 11,7 8 4 - - E 1015,3 16 -
13.08.2020 20:00:00 17,2 11,7 13 7 - - ENE 1013,9 16 0,0
13.08.2020 19:00:00 17,8 11,7 11 6 - - E 1013,8 16 -
13.08.2020 18:00:00 19,4 10,0 22 12 - - ENE 1013,2 16 -
13.08.2020 17:00:00 21,1 11,7 0 0 - - N 1012,4 16 -
13.08.2020 16:00:00 20,6 9,4 11 6 54 29 E 1012,7 16 -
13.08.2020 15:00:00 27,8 2,8 15 8 - - N 1010,3 16 -
13.08.2020 14:00:00 26,1 3,3 11 6 - - SW 1011,1 16 -
13.08.2020 13:00:00 25,0 3,9 - - - - - 1011,5 16 -
13.08.2020 12:00:00 23,3 3,9 9 5 - - - 1012,2 16 -
13.08.2020 11:00:00 21,1 4,4 9 5 - - NW 1012,8 16 -
13.08.2020 10:00:00 18,3 4,4 9 5 - - WNW 1013,6 16 -
13.08.2020 09:00:00 15,6 3,9 8 4 - - W 1014,3 16 -
13.08.2020 08:00:00 12,2 3,9 11 6 - - W 1014,5 16 -
13.08.2020 07:00:00 8,3 3,3 8 4 - - W 1015,7 16 -
13.08.2020 06:00:00 8,9 2,8 0 0 - - N 1015,2 16 -
13.08.2020 05:00:00 10,6 3,3 11 6 - - SW 1014,2 16 -
13.08.2020 04:00:00 8,9 3,9 13 7 - - WSW 1014,0 16 -
13.08.2020 03:00:00 11,1 4,4 0 0 - - N 1012,4 16 -
13.08.2020 02:00:00 11,1 4,4 5 3 - - SSW 1012,0 16 -
13.08.2020 01:00:00 13,9 4,4 5 3 - - N 1011,8 16 -
13.08.2020 00:00:00 15,0 3,9 9 5 - - S 1011,7 16 -
12.08.2020 23:00:00 18,3 2,2 8 4 - - W 1010,9 16 -
12.08.2020 22:00:00 20,0 2,2 34 18 - - NW 1009,9 16 -
12.08.2020 21:00:00 21,7 6,1 18 10 - - WNW 1007,8 16 0,3
12.08.2020 20:00:00 24,4 4,4 31 17 81 44 SSW 1006,3 16 0,0
12.08.2020 19:00:00 21,1 10,0 15 8 48 26 S 1007,0 16 -
12.08.2020 18:00:00 18,9 10,6 28 15 76 41 SSE 1008,0 16 0,0
12.08.2020 17:00:00 22,8 10,0 8 4 93 50 E 1006,4 16 0,0
12.08.2020 16:00:00 29,4 5,6 21 11 111 60 S 1005,8 16 0,0
12.08.2020 15:00:00 29,4 2,8 34 18 67 36 S 1004,7 16 -
12.08.2020 14:00:00 31,1 3,3 42 23 63 34 SSW 1005,0 16 -
12.08.2020 13:00:00 27,8 3,9 44 24 72 39 S 1006,0 16 -
12.08.2020 12:00:00 26,1 3,9 50 27 78 42 SSW 1006,1 16 -
12.08.2020 11:00:00 26,1 3,9 44 24 72 39 SSW 1006,0 16 -
12.08.2020 10:00:00 25,0 2,8 57 31 74 40 SSW 1005,3 16 -
12.08.2020 09:00:00 24,4 0,6 35 19 54 29 SSW 1005,0 16 -
12.08.2020 08:00:00 22,8 0,6 28 15 - - W 1004,9 16 -
12.08.2020 07:00:00 21,7 -0,6 21 11 - - W 1004,8 16 -
12.08.2020 06:00:00 16,7 1,1 22 12 - - WNW 1005,3 16 -
12.08.2020 05:00:00 23,3 -1,1 26 14 54 29 WSW 1004,3 16 -
12.08.2020 04:00:00 21,7 0,0 22 12 54 29 WSW 1004,2 16 -
12.08.2020 03:00:00 22,8 0,0 41 22 52 28 W 1004,1 16 -
12.08.2020 02:00:00 22,2 1,7 21 11 - - W 1004,1 16 -
12.08.2020 01:00:00 21,7 3,3 16 9 - - W 1004,4 13 -
12.08.2020 00:00:00 25,0 1,1 16 9 - - SW 1004,3 16 -
11.08.2020 23:00:00 25,6 1,7 28 15 48 26 SSW 1005,0 10 -
11.08.2020 22:00:00 26,1 0,6 28 15 - - SSW 1005,4 11 -
11.08.2020 21:00:00 27,2 0,0 34 18 55 30 SSW 1006,0 10 -
11.08.2020 20:00:00 28,9 0,0 37 20 55 30 SSW 1006,0 10 -
11.08.2020 19:00:00 31,7 0,6 16 9 - - SSW 1005,9 16 -
11.08.2020 18:00:00 32,2 0,6 28 15 - - SSW 1006,4 16 -
11.08.2020 17:00:00 32,8 1,7 18 10 - - W 1006,2 16 -
11.08.2020 16:00:00 32,2 2,8 15 8 - - W 1006,9 16 -
11.08.2020 15:00:00 32,8 3,3 21 11 - - W 1007,2 16 -
11.08.2020 14:00:00 31,7 3,3 15 8 - - WNW 1007,7 16 -
11.08.2020 13:00:00 31,1 3,3 21 11 - - W 1008,3 16 -
11.08.2020 12:00:00 29,4 4,4 21 11 - - W 1009,0 16 -
11.08.2020 11:00:00 27,2 3,9 18 10 - - WNW 1009,8 16 -
11.08.2020 10:00:00 26,1 3,3 24 13 - - SW 1009,9 16 -
11.08.2020 09:00:00 18,3 6,1 11 6 - - W 1010,7 16 -
11.08.2020 08:00:00 12,8 5,0 9 5 - - W 1011,6 16 -
11.08.2020 07:00:00 8,9 3,9 9 5 - - WSW 1011,6 16 -
11.08.2020 06:00:00 7,8 3,3 9 5 - - WNW 1011,3 16 -
11.08.2020 05:00:00 9,4 3,3 5 3 - - W 1010,7 16 -
11.08.2020 04:00:00 10,0 3,9 13 7 - - NW 1010,5 16 -
11.08.2020 03:00:00 10,6 4,4 5 3 - - - 1010,7 16 -
11.08.2020 02:00:00 13,3 3,9 9 5 - - NW 1010,2 16 -
11.08.2020 01:00:00 13,9 4,4 9 5 - - WSW 1010,4 16 -
11.08.2020 00:00:00 16,7 3,3 15 8 - - W 1010,2 16 -
10.08.2020 23:00:00 16,1 3,3 5 3 - - - 1010,6 16 -
10.08.2020 22:00:00 19,4 2,2 13 7 - - S 1010,6 16 -
10.08.2020 21:00:00 24,4 2,8 5 3 - - SSW 1010,3 16 -
10.08.2020 20:00:00 26,7 2,8 11 6 - - SW 1010,4 16 -
10.08.2020 19:00:00 30,0 1,7 13 7 - - W 1010,6 16 -
10.08.2020 18:00:00 30,6 0,0 16 9 - - NW 1010,9 16 -
10.08.2020 17:00:00 31,1 0,6 18 10 - - NNW 1011,0 16 -
10.08.2020 16:00:00 30,6 1,7 15 8 - - NW 1011,8 16 -
10.08.2020 15:00:00 30,6 0,0 21 11 - - W 1012,4 16 -
10.08.2020 14:00:00 29,4 -1,1 26 14 - - W 1013,1 16 -
10.08.2020 13:00:00 28,3 -1,1 26 14 - - W 1013,4 16 -
10.08.2020 12:00:00 26,7 4,4 28 15 - - WSW 1014,0 16 -
10.08.2020 11:00:00 24,4 5,0 26 14 - - W 1014,8 16 -
10.08.2020 10:00:00 21,1 5,6 18 10 - - W 1015,7 16 -
10.08.2020 09:00:00 16,1 5,0 18 10 - - WNW 1017,2 16 -
10.08.2020 08:00:00 10,6 4,4 15 8 - - NW 1017,6 16 -
10.08.2020 07:00:00 6,7 3,3 5 3 - - WNW 1018,1 16 -
10.08.2020 06:00:00 6,1 2,8 9 5 - - NW 1017,9 16 -
10.08.2020 05:00:00 7,2 3,3 13 7 - - NW 1017,7 16 -
10.08.2020 04:00:00 8,3 3,3 0 0 - - N 1017,8 16 -
10.08.2020 03:00:00 8,3 3,3 8 4 - - S 1018,1 16 -
10.08.2020 02:00:00 10,0 3,9 11 6 - - SSW 1018,2 16 -
10.08.2020 01:00:00 14,4 4,4 15 8 - - ESE 1017,5 16 -
10.08.2020 00:00:00 17,2 4,4 16 9 - - ESE 1016,9 16 -
09.08.2020 23:00:00 17,2 5,0 11 6 - - ESE 1016,8 16 -
09.08.2020 22:00:00 20,0 5,0 16 9 - - ENE 1016,0 16 -
09.08.2020 21:00:00 20,6 3,9 9 5 - - - 1015,1 16 -
09.08.2020 20:00:00 25,6 3,9 18 10 - - N 1013,3 16 -
09.08.2020 19:00:00 27,8 3,9 18 10 - - WNW 1012,3 16 -
09.08.2020 18:00:00 28,9 3,9 26 14 - - NW 1012,4 16 -
09.08.2020 17:00:00 28,9 4,4 28 15 - - W 1012,1 16 -
09.08.2020 16:00:00 28,9 5,0 28 15 - - W 1012,6 16 -
09.08.2020 15:00:00 28,3 5,0 18 10 - - NNW 1013,3 16 -
09.08.2020 14:00:00 27,8 5,6 18 10 - - NNW 1014,4 16 -
09.08.2020 13:00:00 25,6 5,0 15 8 - - NNW 1015,0 16 -
09.08.2020 12:00:00 25,0 5,0 8 4 - - WSW 1015,4 16 -
09.08.2020 11:00:00 23,3 5,0 13 7 - - NNW 1015,6 16 -
09.08.2020 10:00:00 22,2 5,0 16 9 - - NW 1015,8 16 -
09.08.2020 09:00:00 18,9 5,0 9 5 - - W 1015,8 16 -
09.08.2020 08:00:00 17,8 5,0 11 6 - - W 1015,6 16 -
09.08.2020 07:00:00 16,1 3,9 15 8 - - WSW 1015,3 16 -
09.08.2020 06:00:00 15,6 3,3 13 7 - - W 1014,7 16 -
09.08.2020 05:00:00 16,7 3,3 13 7 - - W 1014,3 16 -
09.08.2020 04:00:00 14,4 3,3 11 6 - - WSW 1014,4 16 -
09.08.2020 03:00:00 15,0 2,8 11 6 - - WSW 1013,5 16 -
09.08.2020 02:00:00 13,3 2,2 8 4 - - WSW 1013,6 16 -
09.08.2020 01:00:00 15,0 2,8 9 5 - - W 1013,0 16 -
09.08.2020 00:00:00 19,4 2,2 5 3 - - - 1012,6 16 -
08.08.2020 23:00:00 20,6 1,7 11 6 - - W 1012,0 16 -
08.08.2020 22:00:00 21,7 1,7 18 10 - - WNW 1011,6 16 -
08.08.2020 21:00:00 26,1 0,0 11 6 - - W 1010,2 16 -
08.08.2020 20:00:00 27,2 0,6 16 9 - - WSW 1010,4 16 -
08.08.2020 19:00:00 28,3 0,0 22 12 - - WSW 1010,5 16 -
08.08.2020 18:00:00 30,6 0,0 26 14 - - W 1010,6 16 -
08.08.2020 17:00:00 29,4 -1,1 26 14 - - W 1011,3 16 -
08.08.2020 16:00:00 28,9 0,6 22 12 - - W 1011,7 16 -
08.08.2020 15:00:00 31,1 0,6 24 13 - - W 1011,3 16 -
08.08.2020 14:00:00 28,3 2,2 22 12 - - W 1012,0 16 -
08.08.2020 13:00:00 30,0 2,8 21 11 - - W 1012,1 16 -
08.08.2020 12:00:00 26,1 2,8 13 7 - - WNW 1013,4 16 -
08.08.2020 11:00:00 23,3 2,8 13 7 - - WNW 1014,0 16 -
08.08.2020 10:00:00 19,4 2,2 11 6 - - WNW 1015,3 16 -
08.08.2020 09:00:00 14,4 1,7 8 4 - - WNW 1015,9 16 -
08.08.2020 08:00:00 10,0 1,1 8 4 - - NW 1016,3 16 -
08.08.2020 07:00:00 6,7 0,6 11 6 - - NW 1016,6 16 -
08.08.2020 06:00:00 7,2 0,0 9 5 - - WNW 1016,0 16 -
08.08.2020 05:00:00 6,7 0,6 5 3 - - - 1015,9 16 -
08.08.2020 04:00:00 7,2 0,6 5 3 - - WNW 1015,9 16 -
08.08.2020 03:00:00 9,4 1,1 13 7 - - WNW 1015,9 16 -
08.08.2020 02:00:00 11,1 0,6 9 5 - - NW 1015,7 16 -
08.08.2020 01:00:00 11,7 0,6 0 0 - - N 1015,5 16 -

tt = temperature
td = dewpoint
ff = wind speed
fx = gusts
dd = wind direction
ppp = reduced air pressure
vv = visibility
rr = precipitation

Next stations